Tracking 22440 objects as of 27-Feb-2021
HD Live streaming from Space Station
objects crossing your sky now

YAOGAN-30 U

Track YAOGAN-30 U now!
10-day predictions


NORAD ID: 46807
Int'l Code: 2020-076A
Perigee: 604.0 km
Apogee: 607.0 km
Inclination: 35.0 °
Period: 96.7 minutes
Semi major axis: 6976 km
RCS: Unknown
Launch date: October 26, 2020
Source: People's Republic of China (PRC)
Launch site: Xichang Space Center, China (XSC)
aabbcc
Your satellite tracking list
Your tracking list is empty




NASA's NSSDC Master Catalog

Two Line Element Set (TLE):
1 46807U 20076A   21058.15552525  .00000306  00000-0  33938-4 0  9995
2 46807  34.9957 223.3520 0002175 291.2079  68.8394 14.89865977 18423
Source of the keplerian elements: AFSPC